Location: Estes Par
(40.3770°N, 105.5210°W)
Time: 08:16:01
(UTC-06:00)

Vanguard 1 - All Passes

Search period start: 23 June 2018 00:00
Search period end: 03 July 2018 00:00
Orbit: 650 x 3833 km, 34.3° (Epoch: 22 June)

Date Brightness Start Highest point End Pass type
(mag) Time Alt. Az. Time Alt. Az. Time Alt. Az.
23 Jun - 04:19:34 10° SSE 04:24:19 16° SE 04:30:40 10° E visible
23 Jun - 06:34:43 10° SW 06:43:41 52° SSE 07:00:00 10° E daylight
23 Jun - 08:53:58 10° W 09:06:34 71° S 09:28:15 10° E daylight
23 Jun - 11:15:12 10° W 11:31:43 59° SSW 11:54:31 10° SE daylight
23 Jun - 13:39:24 10° W 13:56:37 33° SW 14:15:16 10° SSE daylight
24 Jun - 04:38:34 10° S 04:44:29 23° SE 04:53:22 10° E visible
24 Jun - 06:55:13 10° WSW 07:04:31 59° SSE 07:21:43 10° E daylight
24 Jun - 09:14:53 10° W 09:27:51 70° S 09:49:47 10° ESE daylight
24 Jun - 11:36:23 10° W 11:52:58 53° SSW 12:15:11 10° SE daylight
24 Jun - 14:01:47 10° W 14:17:25 26° SW 14:34:06 10° S daylight
25 Jun - 04:58:15 10° SSW 05:04:47 31° SE 05:15:27 10° E visible
25 Jun - 07:15:52 10° WSW 07:25:29 64° SSE 07:43:24 10° E daylight
25 Jun - 09:35:49 10° W 09:49:09 67° S 10:11:11 10° ESE daylight
25 Jun - 11:57:43 10° W 12:14:08 46° SSW 12:35:30 10° SE daylight
25 Jun - 14:25:05 10° W 14:38:10 20° SW 14:51:54 10° S daylight
26 Jun - 05:18:18 10° SW 05:25:15 39° SSE 05:37:16 10° E daylight
26 Jun - 07:36:37 10° WSW 07:46:32 67° S 08:05:03 10° E daylight
26 Jun - 09:56:48 10° W 10:10:26 62° SSW 10:32:24 10° ESE daylight
26 Jun - 12:19:13 10° W 12:35:13 39° SSW 12:55:25 10° SSE daylight
26 Jun - 14:50:34 10° WSW 14:58:52 13° SW 15:07:26 10° SSW daylight
27 Jun - 03:24:20 10° SSE 03:27:01 12° SE 03:30:12 10° ESE visible
27 Jun - 05:38:38 10° SW 05:45:52 48° SSE 05:58:57 10° E daylight
27 Jun - 07:57:24 10° W 08:07:40 68° S 08:26:41 10° ESE daylight
27 Jun - 10:17:50 10° W 10:31:41 56° SSW 10:53:23 10° SE daylight
27 Jun - 12:41:03 10° W 12:56:14 31° SW 13:14:50 10° SSE daylight
28 Jun - 03:42:50 10° S 03:47:13 19° SE 03:53:15 10° E visible
28 Jun - 05:59:07 10° WSW 06:06:37 55° SSE 06:20:34 10° E daylight
28 Jun - 08:18:15 10° W 08:28:51 67° S 08:48:13 10° ESE daylight
28 Jun - 10:38:58 10° W 10:52:55 50° SSW 11:14:03 10° SE daylight
28 Jun - 13:03:25 10° W 13:17:13 25° SW 13:33:31 10° S daylight
29 Jun - 04:02:25 10° SSW 04:07:32 26° SE 04:15:20 10° E visible
29 Jun - 06:19:44 10° WSW 06:27:31 61° SSE 06:42:10 10° E daylight
29 Jun - 08:39:08 10° W 08:50:01 63° S 09:09:37 10° ESE daylight
29 Jun - 11:00:14 10° W 11:14:06 43° SSW 11:34:22 10° SSE daylight
29 Jun - 13:26:47 10° WSW 13:38:09 18° SW 13:51:03 10° S daylight
30 Jun - 04:22:26 10° SSW 04:27:59 34° SSE 04:37:03 10° E visible
30 Jun - 06:40:26 10° WSW 06:48:29 64° S 07:03:45 10° E daylight
30 Jun - 09:00:03 10° W 09:11:13 58° SSW 09:30:50 10° ESE daylight
30 Jun - 11:21:42 10° W 11:35:14 35° SSW 11:54:15 10° SSE daylight
30 Jun - 13:52:56 10° WSW 13:59:06 12° SW 14:05:41 10° SSW daylight
01 Jul - 04:42:44 10° SW 04:48:35 43° SSE 04:58:38 10° E visible
01 Jul - 07:01:12 10° WSW 07:09:31 64° S 07:25:18 10° ESE daylight
01 Jul - 09:21:03 10° W 09:32:24 52° SSW 09:51:47 10° SE daylight
01 Jul - 11:43:32 10° W 11:56:21 28° SW 12:13:33 10° SSE daylight
02 Jul - 02:47:15 10° S 02:50:16 15° SE 02:53:58 10° ESE visible
02 Jul - 05:03:13 10° SW 05:09:19 50° SSE 05:20:09 10° E visible
02 Jul - 07:22:00 10° W 07:30:35 63° S 07:46:46 10° ESE daylight
02 Jul - 09:42:08 10° W 09:53:35 45° SSW 10:12:26 10° SE daylight
02 Jul - 12:05:58 10° W 12:17:27 22° SW 12:32:02 10° S daylight
